This is the latest recevied weather packets stored in our database for station/object OM6ACB-6. If no packets are shown the sender has not sent any weather packets the latest 10 day(s).
| Time | Temp. | Humidity | Pressure | Rain* | Wind** | Luminosity | Snow |
|---|---|---|---|---|---|---|---|
| 1777913659 | 21.67° C | 22% | 1018.5 hPa | 0 mm | - | - | - |
| 1777913059 | 22.78° C | 21% | 1018.8 hPa | 0 mm | - | - | - |
| 1777912458 | 23.33° C | 21% | 1018.9 hPa | 0 mm | - | - | - |
| 1777911858 | 22.78° C | 21% | 1018.7 hPa | 0 mm | - | - | - |
| 1777911258 | 23.33° C | 21% | 1018.7 hPa | 0 mm | - | - | - |
| 1777910657 | 23.33° C | 21% | 1018.8 hPa | 0 mm | - | - | - |
| 1777910057 | 25.56° C | 20% | 1019.2 hPa | 0 mm | - | - | - |
| 1777909457 | 24.44° C | 20% | 1019.1 hPa | 0 mm | - | - | - |
| 1777908857 | 25° C | 20% | 1019.3 hPa | 0 mm | - | - | - |
| 1777908256 | 25° C | 20% | 1019.3 hPa | 0 mm | - | - | - |
| 1777907656 | 25.56° C | 20% | 1019.5 hPa | 0 mm | - | - | - |
| 1777907056 | 25° C | 20% | 1019.4 hPa | 0 mm | - | - | - |
| 1777906455 | 25.56° C | 20% | 1019.4 hPa | 0 mm | - | - | - |
| 1777905855 | 24.44° C | 20% | 1019.4 hPa | 0 mm | - | - | - |
| 1777905255 | 24.44° C | 20% | 1019.4 hPa | 0 mm | - | - | - |
| 1777904655 | 25.56° C | 20% | 1019.6 hPa | 0 mm | - | - | - |
| 1777904054 | 26.67° C | 20% | 1020 hPa | 0 mm | - | - | - |
| 1777903454 | 25° C | 20% | 1019.7 hPa | 0 mm | - | - | - |
| 1777902854 | 25.56° C | 20% | 1019.9 hPa | 0 mm | - | - | - |
| 1777902253 | 26.11° C | 20% | 1020 hPa | 0 mm | - | - | - |
| 1777901653 | 25.56° C | 20% | 1020 hPa | 0 mm | - | - | - |
| 1777901053 | 25° C | 20% | 1020.2 hPa | 0 mm | - | - | - |
| 1777900453 | 25.56° C | 20% | 1020.4 hPa | 0 mm | - | - | - |
| 1777899852 | 25.56° C | 20% | 1020.4 hPa | 0 mm | - | - | - |
| 1777899252 | 26.11° C | 20% | 1020.6 hPa | 0 mm | - | - | - |
* Rain latest hour (hover to see other rain measurements)
** Current wind speed in m/s (hover to see current wind gust speed)